Home > Weather > Newman > Past weeks

Flag for Australia Past Weather in Newman, Western Australia, Australia — Yesterday and Last 2 Weeks

Now
69 °F

Mild.


Feels Like: 69 °F
Forecast: 45 / 78 °F
Wind: 9 mph from Southwest

Location: Newman Aerodrome

Current Time: Aug 29, 2016 at 1:40:47 PM

Latest Report: Aug 29, 2016 at 12:00 PM


Visibility: N/A

Pressure: 29.90 "Hg (28.06 "Hg at 546m altitude)

Humidity: 30%

Dew Point: 36 °F

Location of NewmanLocation

Past Weather in Newman — Graph

°F

Newman Temperature Yesterday

Maximum temperature yesterday: 74 °F (at 3:00 PM)
Minimum temperature yesterday: 56 °F (at 11:00 PM)
Average temperature yesterday: 66 °F

High & Low Weather Summary for the Past Weeks

 TemperatureHumidityPressure
High86 °F (Aug 15, 3:00 PM)86% (Aug 28, 5:00 AM)30.15 "Hg (Aug 28, 5:00 AM)
Low39 °F (Aug 26, 6:00 AM)10% (Aug 27, 2:00 PM)29.79 "Hg (Aug 27, 3:00 PM)
Average63 °F37%29.98 "Hg
* Reported Aug 14 12:00 PM — Aug 29 12:00 PM, Newman, Weather by CustomWeather, © 2016

Note: Actual official high and low records may vary slightly from our data, if they occured in-between our weather recording intervals... More about our weather records

Advertising

Newman Weather History for the Previous 24 Hours

Scroll right to see more
 ConditionsComfort  
Time TempWeatherWind HumidityBarometerVisibility
12:00 PM
Mon, Aug 29
69 °FMild.9 mph30%29.90 "HgN/A
11:00 AM67 °FMild.7 mph34%29.92 "HgN/A
9:00 AM61 °FRefreshingly cool.8 mph43%29.94 "HgN/A
8:00 AM56 °FRefreshingly cool.7 mph53%29.93 "HgN/A
6:00 AM45 °FQuite cool.No wind75%29.90 "HgN/A
5:00 AM46 °FCool.6 mph72%29.88 "HgN/A
3:00 AM47 °FCool.5 mph66%29.86 "HgN/A
2:00 AM51 °FCool.3 mph62%29.87 "HgN/A
12:00 AM54 °FCool.5 mph54%29.88 "HgN/A
11:00 PM
Sun, Aug 28
56 °FRefreshingly cool.6 mph49%29.87 "HgN/A
9:00 PM59 °FRefreshingly cool.6 mph45%29.86 "HgN/A
8:00 PM63 °FMild.8 mph41%29.85 "HgN/A
6:00 PM68 °FMild.8 mph32%29.83 "HgN/A
5:00 PM72 °FMild.10 mph30%29.81 "HgN/A
3:00 PM74 °FMild.10 mph31%29.80 "HgN/A
2:00 PM73 °FMild.14 mph35%29.81 "HgN/A
Weather by CustomWeather, © 2016

See weather overviewHow to use our weather pages